Location: Hickory_CSC
(35.7330°N, 81.3330°W)
Time: 02:26:41
(UTC-04:00)

ISS - All Passes

Search period start: 22 September 2017 00:00
Search period end: 02 October 2017 00:00
Orbit: 401 x 407 km, 51.6° (Epoch: 22 September)

Date Brightness Start Highest point End Pass type
(mag) Time Alt. Az. Time Alt. Az. Time Alt. Az.
22 Sep - 04:14:26 10° NNW 04:17:09 23° NNE 04:19:50 10° E visible
22 Sep - 05:50:40 10° WNW 05:53:39 32° SW 05:56:36 10° SSE visible
22 Sep - 20:52:08 10° SSW 20:54:59 28° SE 20:57:51 10° ENE visible
22 Sep - 22:28:40 10° W 22:31:26 25° NNW 22:34:13 10° NNE night (unlit)
23 Sep - 03:22:40 10° N 03:24:38 15° NNE 03:26:35 10° ENE night (unlit)
23 Sep - 04:58:08 10° NW 05:01:26 72° SW 05:04:41 10° SE visible
23 Sep - 20:01:05 10° SSE 20:02:51 14° SE 20:04:37 10° E visible
23 Sep - 21:35:51 10° WSW 21:39:01 45° NW 21:42:11 10° NE visible
24 Sep - 04:05:53 10° NW 04:09:06 52° NE 04:12:19 10° ESE night (unlit)
24 Sep - 05:43:51 10° WSW 05:45:14 12° SW 05:46:36 10° SSW night (unlit)
24 Sep - 20:43:24 10° SW 20:46:40 84° SE 20:49:57 10° NE visible
24 Sep - 22:21:48 10° WNW 22:23:32 13° NNW 22:25:16 10° N visible
25 Sep - 03:13:48 10° NNW 03:16:41 27° NE 03:19:33 10° E night (unlit)
25 Sep - 04:50:20 10° WNW 04:53:05 25° SW 04:55:50 10° S night (unlit)
25 Sep - 19:51:23 10° SSW 19:54:24 37° SE 19:57:27 10° ENE visible
25 Sep - 21:28:23 10° W 21:30:57 21° NNW 21:33:32 10° NNE visible
26 Sep - 02:21:54 10° NNW 02:24:10 17° NNE 02:26:25 10° ENE night (unlit)
26 Sep - 03:57:38 10° WNW 04:00:51 54° SW 04:04:03 10° SSE night (unlit)
26 Sep - 18:59:56 10° S 19:02:12 18° SE 19:04:29 10° E daylight
26 Sep - 20:35:25 10° WSW 20:38:28 36° NW 20:41:32 10° NNE visible
27 Sep - 01:30:25 10° N 01:31:32 11° NNE 01:32:39 10° NE night (unlit)
27 Sep - 03:05:15 10° NW 03:08:32 68° NE 03:11:48 10° SE night (unlit)
27 Sep - 19:42:48 10° SW 19:46:03 75° NW 19:49:19 10° NE visible
27 Sep - 21:21:43 10° NW 21:23:00 12° NNW 21:24:18 10° N visible
28 Sep - 02:13:04 10° NNW 02:16:06 33° NE 02:19:07 10° ESE night (unlit)
28 Sep - 03:49:57 10° W 03:52:23 19° SW 03:54:50 10° S night (unlit)
28 Sep - 18:50:34 10° SSW 18:53:43 48° SE 18:56:53 10° ENE daylight
28 Sep - 20:28:03 10° WNW 20:30:22 18° NNW 20:32:42 10° NNE visible
29 Sep - 01:21:04 10° NNW 01:23:34 20° NNE 01:26:04 10° E night (unlit)
29 Sep - 02:57:03 10° WNW 03:00:09 41° SW 03:03:16 10° SSE night (unlit)
29 Sep - 17:58:51 10° S 18:01:27 22° SE 18:04:05 10° ENE daylight
29 Sep - 19:34:54 10° W 19:37:48 29° NW 19:40:44 10° NNE visible
30 Sep - 00:29:20 10° N 00:30:56 13° NNE 00:32:32 10° NE night (unlit)
30 Sep - 02:04:32 10° NW 02:07:49 88° NE 02:11:06 10° SE night (unlit)
30 Sep - 17:08:22 10° SE 17:09:16 11° SE 17:10:09 10° ESE daylight
30 Sep - 18:42:07 10° WSW 18:45:20 57° NW 18:48:33 10° NE daylight
30 Sep - 20:21:49 10° NNW 20:22:23 10° NNW 20:22:57 10° NNW visible
01 Oct - 01:12:15 10° NW 01:15:23 41° NE 01:18:31 10° ESE night (unlit)
01 Oct - 02:49:35 10° W 02:51:35 15° SW 02:53:35 10° SSW night (unlit)
01 Oct - 17:49:42 10° SW 17:52:55 64° SE 17:56:10 10° NE daylight
01 Oct - 19:27:39 10° WNW 19:29:40 15° NNW 19:31:43 10° N visible
